Cranbrook, British Columbia

3:56 AM MST on February 07, 2016 (GMT -0700)
Cranbrook

Weather History for CYXC - October, 2012

Change the Weather History Date:

Sunday, October 28, 2012

  Actual Average Record
Temperature  
Mean Temperature 42 °F -  
Max Temperature 51 °F 36 °F 53 °F (2006)
Min Temperature 33 °F 23 °F 19 °F (2004)
Degree Days  
Heating Degree Days 23    
Moisture  
Dew Point 36 °F    
Average Humidity 87    
Maximum Humidity 100    
Minimum Humidity 62    
Precipitation  
Precipitation 0.12 in 0.04 in - ()
Sea Level Pressure  
Sea Level Pressure 29.91 in    
Wind  
Wind Speed 3 mph ()    
Max Wind Speed 9 mph    
Max Gust Speed -    
Visibility 11.6 miles    
Events Fog , Rain , Snow    
Averages and records for this station are not official NWS values.
T = Trace of Precipitation, MM = Missing Value Source: Averaged Metar Reports

Daily Weather History Graph

Daily Weather History Graph

Search for Another Location

Airport or City:

Trip Planner

Search our weather history database for the weather conditions in past years. The results will help you decide how hot, cold, wet, or windy it might be!

Date:

Astronomy

Oct. 28, 2012 Rise Set
Actual Time 8:26 AM MDT 6:26 PM MDT
Civil Twilight 7:52 AM MDT 6:59 PM MDT
Nautical Twilight 7:15 AM MDT 7:37 PM MDT
Astronomical Twilight 6:38 AM MDT 8:14 PM MDT
Moon 5:46 PM MDT (10/28) 7:21 AM MDT (10/28)
Length of Visible Light 11h 07m
Length of Day
10h 00m
Waxing Gibbous, 99% of the Moon is Illuminated
Oct 28
Waxing Gibbous
Oct 29
Full
Nov 6
Last Quarter
Nov 13
New
Nov 20
First Quarter

Hourly Weather History & Observations

Time (MDT) Temp. Windchill Dew Point Humidity Pressure Visibility Wind Dir Wind Speed Gust Speed Precip Events Conditions
12:00 AM 36 °F - 34 °F 89% 29.94 in 12 mi SSE 3.5 mph - - Rain Light Rain
12:00 AM 35.6 °F 32.8 °F 33.8 °F 93% 29.94 in 12.0 mi SSE 3.5 mph - N/A Rain Light Rain
1:00 AM 35.6 °F 29.2 °F 33.8 °F 93% 29.91 in 15.0 mi SSE 8.1 mph - N/A Rain Light Rain
2:00 AM 33.8 °F - 33.8 °F 100% 29.92 in 8.0 mi North 2.3 mph - N/A Rain Light Rain
2:32 AM - - - N/A% - 5.0 mi South 4.6 mph - N/A Rain Light Rain
3:00 AM 35.6 °F 31.7 °F 33.8 °F 93% 29.90 in 4.0 mi SSW 4.6 mph - N/A Rain , Snow Light Rain
4:00 AM 33.8 °F 30.8 °F 33.8 °F 100% 29.88 in 6.0 mi ESE 3.5 mph - N/A Rain , Snow Light Rain
4:22 AM - - - N/A% - 8.0 mi SE 4.6 mph - N/A   Unknown
5:00 AM 35.6 °F - 33.8 °F 93% 29.88 in 10.0 mi SSE 2.3 mph - N/A Snow Light Snow
6:00 AM 35 °F - 34 °F 92% 29.88 in 10 mi WSW 2.3 mph - - Snow Light Snow
6:11 AM - - - N/A% - 6.0 mi SW 3.5 mph - N/A   Overcast
6:43 AM - - - N/A% - 8.0 mi SW 2.3 mph - N/A Fog Overcast
7:00 AM 33.8 °F - 33.8 °F 100% 29.88 in 12.0 mi WNW 2.3 mph - N/A   Overcast
8:00 AM 33.8 °F - 32.0 °F 93% 29.88 in 15.0 mi NW 2.3 mph - N/A   Mostly Cloudy
9:00 AM 33.8 °F - 33.8 °F 100% 29.89 in 15.0 mi ENE 2.3 mph - N/A   Mostly Cloudy
10:00 AM 35.6 °F 32.8 °F 33.8 °F 93% 29.90 in 15.0 mi WNW 3.5 mph - N/A   Mostly Cloudy
11:00 AM 37.4 °F - 33.8 °F 87% 29.90 in 15.0 mi Calm Calm - N/A   Mostly Cloudy
12:00 PM 39 °F - 37 °F 88% 29.90 in 15 mi West 3.5 mph - -   Partly Cloudy
12:00 PM 39.2 °F 35.9 °F 37.4 °F 93% 29.90 in 15.0 mi West 4.6 mph - N/A   Mostly Cloudy
12:23 PM - - - N/A% - 15.0 mi NW 2.3 mph - N/A   Mostly Cloudy
12:49 PM - - - N/A% - 15.0 mi Calm Calm - N/A   Mostly Cloudy
1:00 PM 42.8 °F - 39.2 °F 87% 29.90 in 20.0 mi North 2.3 mph - N/A   Mostly Cloudy
2:00 PM 46.4 °F - 41.0 °F 81% 29.90 in 25.0 mi Calm Calm - N/A   Mostly Cloudy
3:00 PM 48.2 °F - 41.0 °F 76% 29.88 in 25.0 mi Calm Calm - N/A   Mostly Cloudy
4:00 PM 50.0 °F - 39.2 °F 66% 29.88 in 25.0 mi South 8.1 mph - N/A   Mostly Cloudy
5:00 PM 50.0 °F - 37.4 °F 62% 29.90 in 25.0 mi South 9.2 mph - N/A   Mostly Cloudy
6:00 PM 46 °F - 39 °F 68% 29.91 in 25 mi SE 9.2 mph - -   Scattered Clouds
6:00 PM 46.4 °F 42.4 °F 39.2 °F 76% 29.91 in 25.0 mi SSE 8.1 mph - N/A   Mostly Cloudy
7:00 PM 44.6 °F 39.7 °F 39.2 °F 81% 29.93 in 25.0 mi South 9.2 mph - N/A   Mostly Cloudy
9:00 PM 39.2 °F 37.0 °F 35.6 °F 87% 29.97 in 25.0 mi WSW 3.5 mph - N/A   Mostly Cloudy
10:00 PM 39.2 °F 35.9 °F 33.8 °F 81% 29.97 in 25.0 mi West 4.6 mph - N/A   Mostly Cloudy
11:00 PM 39.2 °F 35.0 °F 33.8 °F 81% 29.97 in 25.0 mi West 5.8 mph - N/A   Mostly Cloudy